Skip Page Navigation
NASA JPL Caltech
NASA Logo - Jet Propulsion Laboratory + View the NASA Portal
+ Center for Near-Earth Object Studies
JPL Home Earth Solar System Stars & Galaxies Technology
JPL Solar System Dynamics
BODIES ORBITS EPHEMERIDES TOOLS PHYSICAL DATA DISCOVERY FAQ SITE MAP
JPL Small-Body Database Browser
Search: [ help ]  
1829 Dawson (1967 JJ)
Classification: Main-belt Asteroid          SPK-ID: 2001829
Ephemeris | Orbit Diagram | Orbital Elements | Mission Design | Physical Parameters | Discovery Circumstances ]

[ show orbit diagram ]
Orbital Elements at Epoch 2459000.5 (2020-May-31.0) TDB
Reference: JPL 37 (heliocentric ecliptic J2000)
 Element Value Uncertainty (1-sigma)   Units 
e .1210747823963217 2.868e-08  
a 2.251008610685345 5.4812e-09 au
q 1.978468232974371 6.393e-08 au
i 6.33669609498851 3.5294e-06 deg
node 293.3741550699713 3.2751e-05 deg
peri 142.54516348 3.6887e-05 deg
M 54.7183424965845 1.6764e-05 deg
tp 2458813.002883130539
(2019-Nov-25.50288313)
5.7316e-05 TDB
period 1233.571029261702
3.38
4.5056e-06
1.234e-08
d
yr
n .291835647449877 1.0659e-09 deg/d
Q 2.523548988396319 6.1448e-09 au
  Orbit Determination Parameters
   # obs. used (total)      2430  
   data-arc span      33325 days (91.24 yr)  
   first obs. used      1929-01-29  
   last obs. used      2020-04-26  
   planetary ephem.      DE431  
   SB-pert. ephem.      SB431-N16  
   condition code      0  
   norm. resid. RMS      .39317  
   source      ORB  
   producer      Otto Matic  
   solution date      2020-May-20 01:31:06  

Additional Information
 Earth MOID = .998152 au 
 Jupiter MOID = 2.68853 au 
 T_jup = 3.609 
[ show covariance matrix ]

Ephemeris | Orbit Diagram | Orbital Elements | Mission Design | Physical Parameters | Discovery Circumstances ]

Physical Parameter Table
Parameter Symbol Value Units Sigma Reference Notes
absolute magnitude H 12.5   n/a MPO416726  
diameter diameter 8.068 km 0.069 urn:nasa:pds:neowise_diameters_albedos::2.0[mainbelt] (http://adsabs.harvard.edu/abs/2014ApJ...791..121M)  
rotation period rot_per 4.254 h n/a LCDB (Rev. 2019-August); Warner et al., 2009 Published Reference List:
[Stephens, R.D. (2003) Minor Planet Bull. 30, 31.]
[Pray, D.P. (2006) Minor Planet Bull. 33, 4-5.]
[Galad, A. (2010) Astron. Astrophys. 514, A55.]
[Higgins, D.J. (2011) http://www.david-higgins.com/Astronomy/asteroid/lightcurves.htm]
[Oey, J.; Williams, H.; Groom, R.; Pray, D.; Benishek, V. (2017) Minor Planet Bull. 44, 193-199.]
[Pravec, P.; Wolf, M.; Sarounova, L. (2017) http://www.asu.cas.cz/~ppravec/neo.htm]
geometric albedo albedo 0.271   0.019 urn:nasa:pds:neowise_diameters_albedos::2.0[mainbelt] (http://adsabs.harvard.edu/abs/2014ApJ...791..121M)  

1829 Dawson (1967 JJ)          Discovered 1967-May-06 by Cesco, C. U. and Klemola, A. R. at El Leoncito
Reference: DISCOVERY.DBLast Updated: 2003-08-29

Alternate Designations
 1967 JJ = 1929 BF = 1936 DN = 1966 BK = 1971 OA1 
Ephemeris | Orbit Diagram | Orbital Elements | Mission Design | Physical Parameters | Discovery Circumstances ]
ABOUT SSD CREDITS/AWARDS PRIVACY/COPYRIGHT GLOSSARY LINKS
FirstGov 2020-Oct-23 01:54 UT
(server date/time)  
NASA Home Page
Site Manager:   Ryan S. Park
Webmaster  Alan B. Chamberlin